Location: Prato
(43.8830°N, 11.1000°E)
Time: 05:24:29
(UTC+01:00)

ISS - Visible Passes

Search period start: 20 January 2019 00:00
Search period end: 30 January 2019 00:00
Orbit: 404 x 410 km, 51.6° (Epoch: 20 January)

Date Brightness Start Highest point End Pass type
(mag) Time Alt. Az. Time Alt. Az. Time Alt. Az.
21 Jan -1.8 18:44:24 10° S 18:46:04 17° SSE 18:46:04 17° SSE visible
22 Jan -1.9 19:28:14 10° SW 19:29:55 27° SW 19:29:55 27° SW visible
23 Jan -3.2 18:37:07 10° SSW 18:40:13 40° SE 18:40:56 34° ESE visible
24 Jan -2.2 17:46:19 10° S 17:48:58 22° SE 17:51:37 10° E visible
24 Jan -2.7 19:22:03 10° WSW 19:24:36 43° WNW 19:24:36 43° WNW visible
25 Jan -3.9 18:30:33 10° WSW 18:33:51 88° NNW 18:35:27 28° ENE visible
25 Jan -0.4 20:07:55 10° WNW 20:08:10 11° WNW 20:08:10 11° WNW visible
26 Jan -2.4 19:16:08 10° W 19:18:57 31° NNW 19:18:57 31° NNW visible
27 Jan -3.0 18:24:24 10° W 18:27:35 44° NNW 18:29:41 19° NE visible
27 Jan -0.5 20:02:05 10° WNW 20:02:24 12° NW 20:02:24 12° NW visible
28 Jan -2.1 19:10:18 10° WNW 19:13:02 23° N 19:13:05 23° N visible
29 Jan -2.3 18:18:28 10° WNW 18:21:23 28° NNW 18:23:44 14° NE visible
29 Jan -0.7 19:56:02 10° NW 19:56:27 12° NW 19:56:27 12° NW visible
